Theta_e
315 312 314 317 318 318 320 321 325 324 324 322 320 318 318 316 315 317 317 318 318 317
314 315 313 317 318 317 321 321 322 323 322 320 318 317 317 313 315 316 316 317 317 317
313 313 313 313 313 315 319 321 321 320 319 317 316 315 315 313 314 314 314 314 315 317
310 310 311 310 311 312 316 317 316 316 315 313 313 313 313 313 312 312 313 314 315 316
306 307 307 308 309 311 312 314 313 313 312 311 311 312 311 311 311 310 310 312 313 315
304 304 305 307 308 309 309 310 311 310 309 308 309 309 311 310 310 310 310 311 313 314
303 303 304 306 307 306 305 306 307 307 307 308 308 309 309 309 309 309 310 312 313 313
302 302 302 303 305 306 307 307 307 306 307 307 307 307 309 309 308 308 309 311 311 314
301 301 302 302 303 304 304 305 306 306 305 305 306 304 303 306 306 307 307 309 311 313
301 301 301 301 301 301 302 304 304 304 304 304 307 301 300 302 305 306 308 309 311 314
300 300 300 300 300 301 302 303 304 303 303 303 304 300 299 300 305 307 307 308 310 313
300 299 299 299 300 300 301 302 302 303 302 303 304 300 298 300 303 304 306 310 314 314
300 299 299 300 300 301 301 301 302 302 305 303 304 301 299 300 303 305 308 312 314 308
301 300 301 300 300 301 302 302 302 301 303 303 302 303 299 299 305 306 308 312 312 311
Wind_Speed
12 10 10 10 10 10 11 10 10 10 10 8 6 5 5 6 7 9 8 10 10 10
13 14 14 13 12 10 11 10 11 11 10 9 7 6 6 7 9 10 10 10 11 10
15 16 15 14 15 16 13 11 10 10 10 9 8 8 7 7 8 10 10 10 12 12
17 19 17 16 17 16 16 14 12 12 12 11 10 9 9 10 11 12 12 13 13 15
19 18 18 17 18 17 17 15 13 13 12 13 13 12 12 13 12 13 14 13 14 15
15 18 20 19 17 14 13 13 12 12 14 15 14 14 13 14 14 14 14 13 14 14
17 17 17 18 17 12 11 11 14 13 14 15 15 14 14 14 14 14 14 14 14 14
15 15 14 15 15 15 15 14 14 14 14 13 13 12 14 13 13 14 14 14 14 13
15 13 14 14 14 13 14 14 15 15 15 15 12 11 11 14 14 15 15 15 14 12
14 14 13 13 13 13 13 11 12 12 13 13 13 10 13 16 14 15 15 14 14 13
14 13 12 12 12 12 11 11 10 10 11 12 13 11 14 18 16 13 14 14 15 14
12 12 12 12 11 10 11 10 9 10 12 14 16 15 15 15 11 11 15 16 14 13
11 11 12 11 11 9 8 10 10 12 14 15 16 15 15 14 9 12 10 10 13 17
10 12 11 10 9 10 10 10 10 11 10 12 12 14 16 16 9 9 8 8 5 3
Wind_Direction
316 312 299 294 293 288 281 268 243 216 214 215 229 255 290 297 302 305 297 292 285 281
310 310 298 289 293 291 287 274 253 233 219 214 227 258 278 286 294 298 291 289 283 277
305 303 291 283 287 288 281 262 253 237 236 242 258 268 273 273 269 277 283 287 286 278
303 298 289 288 288 281 273 259 245 251 258 266 274 272 269 271 275 273 277 279 278 274
297 292 288 287 287 285 272 263 260 257 261 272 276 273 269 272 275 274 278 277 274 273
298 298 293 287 283 282 279 268 257 261 268 270 269 267 260 260 266 270 272 271 267 267
292 295 292 293 286 274 268 264 267 264 263 263 266 262 258 256 260 267 268 264 261 260
284 280 278 281 280 278 271 266 264 265 261 260 258 253 251 253 262 270 269 263 259 256
283 275 278 282 272 270 274 273 271 265 261 262 253 245 229 247 268 273 265 261 258 244
280 277 275 276 275 273 270 264 257 257 266 263 260 236 237 241 259 264 258 259 252 248
281 278 275 274 270 270 268 262 259 257 250 254 255 242 236 241 259 259 257 249 245 244
283 280 277 277 273 266 267 258 257 259 261 262 266 251 239 244 250 245 243 240 239 230
282 277 278 279 277 270 258 258 261 261 258 267 267 262 247 238 242 242 243 244 240 221
276 277 276 275 273 274 267 270 272 270 263 261 257 260 249 240 235 239 242 220 191 186